Flag for Germany Weather past 2 weeks in Dachau, Bavaria, Germany

Now
32 °F

Light snow. Low clouds.


Feels Like: 27 °F
Forecast: 25 / 36 °F
Wind: 5 mph from Southwest

Location: Oberpfaffenhofen

Current Time: Feb 27, 2015 at 6:10:24 PM

Latest Report: Feb 27, 2015 at 5:20 PM


Visibility: 2 mi

Pressure: 29.92 "Hg

Humidity: 93%

Dew point: 30 °F

Location of DachauLocation

Historic Weather in Dachau — Graph

°F

Dachau temperature yesterday

Maximum temperature yesterday: 43 °F (at 1:50 PM)
Minimum temperature yesterday: 23 °F (at 6:50 AM)
Average temperature yesterday: 36 °F

Past Weeks' High & Low Weather Summary

 TemperatureHumidityPressure
High57 °F (Feb 20, 3:20 PM)100% (Feb 13, 9:20 AM)30.66 "Hg (Feb 13, 9:20 AM)
Low16 °F (Feb 13, 8:20 AM)21% (Feb 20, 3:20 PM)29.47 "Hg (Feb 21, 12:50 PM)
Average33 °F80%30.07 "Hg
* Reported Feb 12 4:20 PM — Feb 27 4:50 PM, Dachau, Weather by CustomWeather, © 2015

Note: Actual official high and low records may vary slightly from our data, if they occured in-between our weather recording intervals... More about our weather records

Advertising

Dachau weather history for previous 24 hours

 ConditionsComfort  
Time TempWeatherWind HumidityBarometerVisibility
4:50 PM
Fri, Feb 27
34 °FLight snow. Overcast.6 mph87%29.89 "Hg3 mi
4:20 PM34 °FSprinkles. Overcast.7 mph87%29.89 "Hg4 mi
3:50 PM36 °FSprinkles. Overcast.7 mph75%29.86 "HgN/A
3:20 PM39 °FSunny.6 mph61%29.86 "Hg10 mi
2:50 PM39 °FSunny.5 mph61%29.83 "Hg10 mi
2:20 PM39 °FSunny.3 mph61%29.83 "Hg10 mi
1:50 PM39 °FPassing clouds.5 mph52%29.83 "HgN/A
1:20 PM39 °FSunny.7 mph52%29.83 "Hg10 mi
12:50 PM39 °FSunny.5 mph52%29.83 "Hg10 mi
12:20 PM39 °FSunny.5 mph56%29.83 "Hg10 mi
11:50 AM39 °FSunny.No wind52%29.83 "Hg10 mi
11:20 AM41 °FSunny.1 mph49%29.80 "Hg10 mi
10:50 AM37 °FSunny.3 mph60%29.80 "Hg10 mi
10:20 AM37 °FSunny.No wind70%29.80 "Hg10 mi
9:50 AM34 °FSunny.3 mph70%29.80 "Hg10 mi
9:20 AM30 °FSunny.1 mph86%29.80 "Hg10 mi
8:50 AM28 °FSunny.No wind86%29.80 "Hg10 mi
8:20 AM27 °FSunny.2 mph86%29.80 "Hg10 mi
7:50 AM21 °FSunny.3 mph93%29.80 "Hg10 mi
7:20 AM23 °FSunny.1 mph93%29.80 "Hg10 mi
6:50 AM21 °FClear.3 mph93%29.80 "Hg10 mi
6:50 PM
Thu, Feb 26
34 °FClear.5 mph70%30.01 "Hg10 mi
6:20 PM37 °FClear.5 mph60%30.01 "Hg10 mi
Weather by CustomWeather, © 2015

See weather overviewHow to use our weather pages